[[{"header":{"parameterUnit":"m.s-1","parameterCategory":2,"la1":30.2991,"la2":30.254,"lo1":-89.0895,"lo2":-89.0444,"dy":0.0017,"dx":0.0017,"nx":28,"ny":28,"refTime":"2024-02-27T03:00:00:Z","depth":"0","parameterNumber":2,"parameterNumberName":"U-component_of_CURRENTS"},"data":[0,0,0,0,0,0,0,0,0,0,0,0,0,0,0,0,0,0,0,0,0,0,0,0,0,0,0,0,0,0,0,0,0,0,0,0,0,0,0,0,0,0,0,0,0,0,0,0,0,0,0,0,0,0,0,0,0,0,0.2284,0.2284,0,0.2286,0.2285,0.2285,0.2269,0.2269,0.2269,0.2269,0.2263,0.2263,0.2263,0,0,0,0,0,0,0,0,0,0,0,0,0,0.2202,0.2203,0.2284,0.2284,0.2285,0.2286,0.2285,0.2285,0.2269,0.2269,0.2269,0.2269,0.2263,0.2263,0.2263,0,0,0,0,0,0,0,0,0,0,0,0,0,0.2219,0.2204,0.2284,0.2281,0.2281,0.2286,0.2285,0.2285,0.2269,0.2269,0.2269,0.2269,0.2263,0.2263,0.2263,0.2261,0,0,0.2262,0.2262,0,0,0,0,0,0,0,0,0.2218,0.2222,0.2281,0.2281,0.2281,0.2281,0.2254,0.2278,0.2269,0.2268,0.2269,0.2269,0.2272,0.2271,0.2264,0.226,0.226,0.2262,0.2262,0.2261,0.2261,0,0,0,0,0,0,0,0.2217,0.2221,0.2279,0.2281,0.2281,0.2257,0.226,0.2258,0.2266,0.2268,0.2268,0.2276,0.2271,0.2264,0.2264,0.226,0.2262,0.2261,0.2261,0.2261,0.2266,0.2267,0,0,0,0,0,0,0.2231,0.2221,0.2279,0.228,0.2255,0.2259,0.2262,0.2277,0.2266,0.2266,0.2276,0.2276,0.2265,0.2264,0.2264,0.2275,0.2261,0.2261,0.2261,0.2266,0.2267,0.2267,0,0,0,0,0,0,0.2229,0.2236,0.2279,0.2253,0.2258,0.2262,0.2278,0.2277,0.2276,0.2273,0.2272,0.2278,0.2265,0.2264,0.2273,0.2274,0.2261,0.2261,0.2266,0.2266,0.2267,0.2288,0,0,0,0,0,0,0.2227,0.2236,0.2247,0.2255,0.226,0.2289,0.2279,0.2278,0.2284,0.2283,0.2274,0.2273,0.2265,0.2274,0.2273,0.2273,0.2261,0.2265,0.2266,0.2267,0.2287,0.2289,0.2291,0,0,0,0,0,0.2224,0.2239,0.2247,0.2254,0.2277,0.2289,0.2289,0.2288,0.2284,0.2285,0.2284,0.2274,0.2276,0.2274,0.2273,0.2273,0.2265,0.2266,0.2267,0.2286,0.2289,0.2291,0,0,0,0,0,0,0.2206,0.224,0.2249,0.2273,0.2285,0.2289,0.229,0.2292,0.2291,0.2288,0.2282,0.2281,0.2293,0.228,0.2278,0.2276,0.2267,0.2267,0.2282,0.2284,0.2286,0.2297,0.226,0,0,0,0,0,0.2211,0.2231,0.2257,0.2273,0.2282,0.2287,0.2291,0.2292,0.2296,0.2295,0.2289,0.2285,0.2293,0.2287,0.2291,0.2287,0.2285,0.2285,0.2287,0.2289,0.2298,0.2328,0.2334,0.2269,0.2269,0.2269,0,0,0.2213,0.2229,0.2244,0.2271,0.2277,0.2282,0.2288,0.2297,0.2293,0.2295,0.2284,0.2299,0.2298,0.2301,0.2302,0.2289,0.2297,0.229,0.2291,0.2299,0.233,0.2336,0.2342,0.227,0.2269,0.2269,0,0,0.2217,0.2238,0.2256,0.2263,0.2279,0.2279,0.2286,0.2294,0.2291,0.2293,0.2299,0.2324,0.2308,0.2321,0.2323,0.2339,0.2318,0.2326,0.2332,0.2362,0.2368,0.2373,0.2339,0.2342,0.2314,0.2314,0.2314,0,0.2206,0.2235,0.226,0.2267,0.2263,0.228,0.2278,0.2282,0.2288,0.2288,0.229,0.2313,0.2322,0.2342,0.2351,0.2346,0.2335,0.2323,0.2366,0.2371,0.2377,0.2341,0.2343,0.2315,0.2315,0.2314,0.2314,0,0.223,0.2237,0.2242,0.2255,0.2256,0.2256,0.2266,0.2266,0.2265,0.2272,0.2298,0.2326,0.2342,0.2347,0.2355,0.2391,0.2359,0.2377,0.2362,0.2385,0.2345,0.2347,0.2316,0.2316,0.2316,0.2315,0,0,0.2222,0.2252,0.2247,0.2239,0.2243,0.2241,0.2237,0.2241,0.2239,0.2265,0.2271,0.2319,0.235,0.2358,0.2379,0.2407,0.2432,0.2404,0.2405,0.2372,0.2447,0.2214,0.2193,0.2457,0.2458,0.2459,0.2389,0,0.2217,0.2224,0.2237,0.2217,0.2214,0.2213,0.2203,0.2209,0.2218,0.2231,0.2285,0.2304,0.2347,0.2359,0.2406,0.2442,0.2444,0.2446,0.2428,0.2426,0.222,0.2192,0.2077,0.1987,0.2391,0.2391,0.2392,0,0.2227,0.2222,0.2215,0.2186,0.2184,0.2173,0.2151,0.2146,0.2176,0.2188,0.2241,0.2279,0.2346,0.2371,0.2446,0.2443,0.2445,0.246,0.2458,0.224,0.2198,0.2038,0.1976,0.1927,0.2395,0.2394,0.2394,0,0.2209,0.2195,0.2181,0.2174,0.216,0.2143,0.2127,0.2136,0.2126,0.2166,0.2171,0.2263,0.229,0.2358,0.238,0.2427,0.2415,0.2485,0.2264,0.2246,0.2142,0.2111,0.2035,0.251,0.251,0.251,0.251,0,0.2197,0.2171,0.217,0.2163,0.2118,0.2117,0.2083,0.2084,0.2096,0.2083,0.2155,0.2164,0.2292,0.2296,0.235,0.2269,0.2387,0.2244,0.2213,0.2136,0.2106,0.2053,0.2039,0.2507,0.2508,0.2508,0.2509,0,0.2171,0.2182,0.2149,0.2129,0.2116,0.2079,0.2038,0.2021,0.2034,0.2023,0.2032,0.2091,0.2081,0.2122,0.2183,0.217,0.2057,0.2079,0.1928,0.1878,0.1633,0.1623,0.1438,0.1417,0.1865,0.1859,0.1854,0,0.2158,0.2152,0.2119,0.2088,0.2071,0.2024,0.1993,0.1991,0.1974,0.1968,0.1961,0.1933,0.1903,0.1842,0.1798,0.1749,0.1782,0.1587,0.1663,0.156,0.1533,0.1529,0.1531,0.154,0.1533,0.1527,0.1522,0,0.2118,0.2114,0.2092,0.2037,0.1996,0.1946,0.1905,0.1886,0.1878,0.186,0.1816,0.1785,0.166,0.1541,0.1396,0.1383,0.147,0.1454,0.1441,0.1313,0.122,0.1203,0.1611,0.1468,0.1473,0.1477,0.148,0.1482,0.2076,0.2046,0.2031,0.1962,0.1915,0.1863,0.1804,0.177,0.1724,0.1636,0.1673,0.1535,0.1379,0.1167,0.1108,0.0904,0.1032,0.0916,0.0925,0.094,0.0868,0.1077,0.0833,0.0835,0.0836,0.0837,0.0838,0,0.2013,0.1999,0.1949,0.1874,0.1794,0.1798,0.1733,0.1654,0.1563,0.1469,0.139,0.1147,0.0951,0.0808,0.0563,0.0448,0.0521,0.0418,0.0487,0.0535,0.0806,0.074,0.0349,0.0349,0.0349,0.035,0.035,0.035,0.199,0.194,0.1915,0.1778,0.1714,0.1599,0.155,0.1437,0.1338,0.1103,0.0913,0.0825,0.0651,0.0352,0.0148,0.0136,0.0181,0.005,0.0148,0.0425,0.0478,0.0529,0.0467,0.0026,0.0026,-0.0097,-0.0098,-0.0099]},{"header":{"parameterUnit":"m.s-1","parameterCategory":2,"la1":30.2991,"la2":30.254,"lo1":-89.0895,"lo2":-89.0444,"dy":0.0017,"dx":0.0017,"nx":28,"ny":28,"refTime":"2024-02-27T03:00:00:Z","depth":"0","parameterNumber":3,"parameterNumberName":"V-component_of_CURRENTS"},"data":[0,0,0,0,0,0,0,0,0,0,0,0,0,0,0,0,0,0,0,0,0,0,0,0,0,0,0,0,0,0,0,0,0,0,0,0,0,0,0,0,0,0,0,0,0,0,0,0,0,0,0,0,0,0,0,0,0,0,0.036,0.036,0,0.0464,0.0466,0.0467,0.0504,0.0503,0.0502,0.0502,0.0617,0.0621,0.0625,0,0,0,0,0,0,0,0,0,0,0,0,0,0.0292,0.0293,0.036,0.036,0.0361,0.0464,0.0466,0.0467,0.0504,0.0503,0.0502,0.0501,0.0616,0.062,0.0625,0,0,0,0,0,0,0,0,0,0,0,0,0,0.0355,0.0293,0.0359,0.0389,0.0392,0.0463,0.0466,0.0468,0.0504,0.0503,0.0502,0.0501,0.0615,0.062,0.0626,0.0684,0,0,0.0643,0.0645,0,0,0,0,0,0,0,0,0.0351,0.0358,0.0384,0.0387,0.0391,0.0466,0.0484,0.0539,0.0504,0.0466,0.0502,0.05,0.0566,0.0576,0.0603,0.0689,0.0694,0.0644,0.0647,0.0649,0.0651,0,0,0,0,0,0,0,0.0347,0.0354,0.0405,0.0385,0.0389,0.0431,0.0438,0.0496,0.0524,0.0469,0.0471,0.0477,0.0568,0.0598,0.0606,0.0696,0.0643,0.0648,0.0652,0.0654,0.0813,0.0814,0,0,0,0,0,0,0.0322,0.035,0.0402,0.0408,0.0363,0.0433,0.0441,0.0446,0.0524,0.0533,0.0478,0.0478,0.0589,0.06,0.061,0.0682,0.0649,0.0655,0.0658,0.0812,0.0813,0.0814,0,0,0,0,0,0,0.032,0.0326,0.0397,0.0378,0.0389,0.0434,0.0441,0.0449,0.0475,0.0529,0.0539,0.0494,0.0588,0.0602,0.0663,0.0686,0.0657,0.0662,0.0811,0.0813,0.0814,0.0825,0,0,0,0,0,0,0.0318,0.0324,0.0327,0.0376,0.0389,0.0439,0.0442,0.0452,0.0479,0.048,0.0547,0.0556,0.0588,0.0655,0.0669,0.0694,0.0667,0.081,0.0812,0.0814,0.0824,0.0827,0.0829,0,0,0,0,0,0.0315,0.0312,0.0327,0.0333,0.0389,0.0439,0.0451,0.0482,0.048,0.05,0.0542,0.0554,0.0674,0.0661,0.0677,0.0704,0.081,0.0812,0.0813,0.0823,0.0826,0.0829,0,0,0,0,0,0,0.0283,0.0317,0.0333,0.0341,0.0388,0.0444,0.0456,0.0483,0.0534,0.0528,0.0578,0.0592,0.0651,0.0676,0.066,0.0751,0.0739,0.0745,0.0741,0.0745,0.0747,0.076,0.0672,0,0,0,0,0,0.0277,0.0285,0.0334,0.0343,0.0358,0.0411,0.0434,0.0459,0.0505,0.0526,0.0577,0.0623,0.0675,0.0705,0.0754,0.0814,0.0823,0.0836,0.0839,0.0841,0.0862,0.0892,0.0899,0.082,0.082,0.082,0,0,0.0273,0.0287,0.0296,0.0338,0.037,0.0414,0.0423,0.0453,0.0501,0.0532,0.0604,0.0639,0.0692,0.0756,0.0784,0.0778,0.0863,0.0844,0.0845,0.0865,0.0894,0.0902,0.0909,0.0822,0.0821,0.0821,0,0,0.0267,0.0274,0.0286,0.0322,0.0364,0.0404,0.0412,0.0474,0.0507,0.0581,0.0609,0.0661,0.0745,0.0792,0.0824,0.0873,0.0875,0.0875,0.0908,0.0936,0.0943,0.0949,0.0946,0.0952,0.0878,0.0878,0.0878,0,0.0262,0.0285,0.0301,0.0326,0.0362,0.0399,0.0442,0.0487,0.0568,0.0609,0.0599,0.0733,0.0768,0.0858,0.087,0.0882,0.0883,0.0891,0.094,0.0946,0.0952,0.0948,0.0954,0.0879,0.0879,0.0878,0.0878,0,0.0277,0.0303,0.0308,0.036,0.0402,0.0437,0.0499,0.0547,0.0585,0.0642,0.0731,0.0782,0.0864,0.0873,0.0892,0.096,0.0939,0.0936,0.093,0.0961,0.0954,0.096,0.088,0.0879,0.0879,0.0879,0,0,0.0253,0.0312,0.0316,0.0358,0.0423,0.0464,0.0531,0.0622,0.0678,0.0742,0.0828,0.0903,0.0926,0.0963,0.0986,0.1011,0.104,0.0992,0.0993,0.0986,0.1078,0.107,0.1076,0.104,0.1042,0.1044,0.1046,0,0.027,0.0326,0.0356,0.0435,0.0478,0.0534,0.0602,0.0682,0.0748,0.0836,0.0889,0.0968,0.0961,0.0994,0.1023,0.1052,0.1063,0.1039,0.1053,0.1053,0.1041,0.1086,0.1067,0.1069,0.1052,0.1053,0.1054,0,0.0279,0.032,0.0392,0.0489,0.0512,0.0566,0.0681,0.0748,0.086,0.0908,0.0988,0.1032,0.1108,0.1075,0.1136,0.1118,0.1103,0.1101,0.1101,0.1103,0.106,0.1041,0.1081,0.1131,0.1064,0.1063,0.1062,0,0.0265,0.0349,0.0411,0.0443,0.0552,0.0598,0.0661,0.077,0.0835,0.0952,0.1005,0.1099,0.1143,0.1161,0.1168,0.1153,0.1206,0.1184,0.1155,0.1152,0.1148,0.1142,0.1243,0.1207,0.1207,0.1207,0.1207,0,0.0279,0.0332,0.0408,0.0445,0.0529,0.0597,0.0692,0.0766,0.0871,0.0956,0.1034,0.1105,0.1164,0.1206,0.1195,0.1206,0.1227,0.1181,0.1169,0.1147,0.1142,0.1194,0.121,0.1207,0.1207,0.1207,0.1207,0,0.0276,0.032,0.0392,0.049,0.0524,0.0582,0.0696,0.0767,0.0853,0.0964,0.0998,0.1118,0.1171,0.1205,0.1238,0.1237,0.1267,0.1226,0.1184,0.1169,0.1201,0.1216,0.1287,0.1339,0.1215,0.1215,0.1215,0,0.029,0.032,0.0408,0.045,0.0498,0.0584,0.0649,0.0749,0.0821,0.0967,0.1019,0.1106,0.1179,0.1233,0.1235,0.1229,0.1255,0.1212,0.1195,0.1227,0.1235,0.1234,0.1274,0.1173,0.1173,0.1173,0.1173,0,0.0321,0.0336,0.0396,0.0463,0.0527,0.0608,0.0699,0.0745,0.0866,0.0947,0.1057,0.1121,0.1181,0.1207,0.1212,0.1201,0.1263,0.1207,0.1266,0.1249,0.123,0.1266,0.1124,0.1171,0.1171,0.1171,0.1171,0.1171,0.0338,0.0377,0.0432,0.0497,0.0561,0.0632,0.0687,0.0777,0.0871,0.0995,0.1052,0.1142,0.1203,0.1215,0.1208,0.1225,0.1231,0.1234,0.1256,0.1256,0.1308,0.1155,0.1177,0.1177,0.1177,0.1178,0.1178,0,0.0375,0.0418,0.0473,0.0546,0.0595,0.0632,0.073,0.0776,0.0867,0.098,0.1065,0.1168,0.1202,0.1235,0.1256,0.1283,0.1294,0.1311,0.1318,0.1365,0.1248,0.125,0.126,0.1259,0.1259,0.1259,0.1259,0.1259,0.0395,0.046,0.0483,0.0561,0.0604,0.0666,0.0711,0.0781,0.0863,0.0988,0.1077,0.1165,0.1272,0.1291,0.1353,0.137,0.1459,0.1406,0.1493,0.1412,0.1407,0.1402,0.1411,0.1453,0.1453,0.16,0.1601,0.1602]}],[{"header":{"parameterUnit":"m.s-1","parameterCategory":2,"la1":30.2991,"la2":30.254,"lo1":-89.0895,"lo2":-89.0444,"dy":0.0017,"dx":0.0017,"nx":28,"ny":28,"refTime":"2024-02-27T03:00:00:Z","depth":"2","parameterNumber":2,"parameterNumberName":"U-component_of_CURRENTS"},"data":[0,0,0,0,0,0,0,0,0,0,0,0,0,0,0,0,0,0,0,0,0,0,0,0,0,0,0,0,0,0,0,0,0,0,0,0,0,0,0,0,0,0,0,0,0,0,0,0,0,0,0,0,0,0,0,0,0,0,0.1792,0.1792,0,0.186,0.1862,0.1864,0.1937,0.1937,0.1937,0.1936,0.2001,0.2002,0.2004,0,0,0,0,0,0,0,0,0,0,0,0,0,0.1806,0.1806,0.1792,0.1792,0.1791,0.186,0.1862,0.1865,0.1937,0.1937,0.1937,0.1936,0.2,0.2002,0.2005,0,0,0,0,0,0,0,0,0,0,0,0,0,0.1843,0.1806,0.1792,0.1825,0.1828,0.186,0.1863,0.1865,0.1937,0.1937,0.1936,0.1936,0.1999,0.2002,0.2005,0.2031,0,0,0.2014,0.2015,0,0,0,0,0,0,0,0,0.184,0.1844,0.1821,0.1823,0.1826,0.1877,0.189,0.1916,0.1937,0.1911,0.1936,0.1936,0.195,0.1957,0.1991,0.2034,0.2037,0.2014,0.2016,0.2017,0.2018,0,0,0,0,0,0,0,0.1838,0.1842,0.1834,0.182,0.1823,0.1863,0.1869,0.1897,0.1943,0.1913,0.1915,0.19,0.1953,0.1988,0.1993,0.2038,0.2014,0.2017,0.2019,0.202,0.2127,0.2128,0,0,0,0,0,0,0.1797,0.1839,0.1831,0.1834,0.1816,0.1862,0.1869,0.1873,0.1943,0.1949,0.19,0.1903,0.1983,0.1989,0.1995,0.2042,0.2017,0.202,0.2022,0.2126,0.2127,0.2129,0,0,0,0,0,0,0.1797,0.1796,0.1828,0.1826,0.1831,0.186,0.1865,0.1874,0.1935,0.193,0.1939,0.1952,0.1983,0.1991,0.2045,0.2044,0.2021,0.2024,0.2125,0.2127,0.2128,0.2128,0,0,0,0,0,0,0.1798,0.1797,0.1785,0.1823,0.1829,0.1886,0.1864,0.1875,0.1917,0.1923,0.1977,0.1981,0.1984,0.2041,0.2048,0.2048,0.2026,0.2123,0.2126,0.2127,0.2126,0.2129,0.2132,0,0,0,0,0,0.1799,0.1762,0.1785,0.1783,0.1813,0.1887,0.1899,0.1925,0.192,0.1976,0.1992,0.1981,0.2058,0.2045,0.2053,0.2053,0.2122,0.2125,0.2127,0.2125,0.2129,0.2132,0,0,0,0,0,0,0.1789,0.1766,0.1792,0.1761,0.1843,0.1895,0.1912,0.1944,0.2006,0.2002,0.2009,0.2017,0.2058,0.2068,0.2053,0.2092,0.2083,0.2087,0.2078,0.2082,0.2084,0.2099,0.2029,0,0,0,0,0,0.1774,0.1738,0.1785,0.1784,0.1813,0.188,0.1906,0.1946,0.1991,0.202,0.203,0.2046,0.2073,0.2089,0.2112,0.2146,0.2148,0.2148,0.2151,0.2153,0.2171,0.2192,0.2198,0.2137,0.2137,0.2137,0,0,0.1793,0.1755,0.1756,0.1779,0.1836,0.187,0.1902,0.1964,0.1991,0.2013,0.2037,0.2063,0.2087,0.2117,0.2135,0.2126,0.2164,0.2156,0.2157,0.2175,0.2196,0.2201,0.2207,0.2138,0.2138,0.2138,0,0,0.1784,0.1777,0.1752,0.1803,0.1854,0.1881,0.1907,0.1974,0.2014,0.2055,0.2064,0.2107,0.2124,0.2152,0.2165,0.2205,0.2181,0.2196,0.2216,0.2236,0.2241,0.2245,0.2219,0.2221,0.2191,0.2191,0.2191,0,0.1787,0.1766,0.1779,0.178,0.1807,0.1883,0.1922,0.1967,0.2038,0.2064,0.2058,0.2113,0.214,0.2189,0.2203,0.221,0.2201,0.2197,0.2238,0.2243,0.2247,0.2219,0.2222,0.2192,0.2192,0.2191,0.2191,0,0.1779,0.1776,0.178,0.1777,0.1827,0.1879,0.1937,0.1981,0.2,0.2033,0.2097,0.2143,0.218,0.2187,0.221,0.2259,0.2233,0.2239,0.2225,0.2253,0.2222,0.2224,0.2192,0.2192,0.2192,0.2192,0,0,0.1747,0.1756,0.1761,0.1791,0.1831,0.1886,0.1914,0.1981,0.1998,0.2056,0.2086,0.2158,0.2195,0.2218,0.2254,0.2282,0.2302,0.2278,0.2279,0.2243,0.2308,0.1974,0.1945,0.2309,0.2311,0.2312,0.2259,0,0.1747,0.1738,0.1732,0.1787,0.1829,0.1882,0.1896,0.1965,0.2003,0.2036,0.2118,0.2153,0.2201,0.2225,0.227,0.2314,0.2316,0.2314,0.2296,0.2295,0.1988,0.1939,0.1898,0.1819,0.2261,0.2262,0.2262,0,0.1743,0.1736,0.1772,0.1812,0.1832,0.1851,0.1914,0.194,0.1998,0.2031,0.2098,0.2141,0.2233,0.2243,0.2331,0.2325,0.2321,0.2333,0.233,0.2026,0.1965,0.1872,0.1807,0.2266,0.2266,0.2266,0.2265,0,0.1749,0.1768,0.1789,0.1815,0.1856,0.1881,0.1892,0.1947,0.1966,0.2034,0.2041,0.2151,0.2189,0.225,0.2265,0.2314,0.2292,0.236,0.2046,0.2022,0.1986,0.1952,0.2378,0.2378,0.2378,0.2379,0.2379,0,0.173,0.1758,0.1801,0.1824,0.1849,0.1894,0.1906,0.1932,0.1962,0.1964,0.2046,0.2061,0.2192,0.2188,0.2235,0.2097,0.2262,0.2024,0.1977,0.1972,0.194,0.2346,0.2343,0.2376,0.2377,0.2377,0.2378,0,0.1731,0.1747,0.1793,0.1844,0.1855,0.1884,0.1887,0.1889,0.192,0.1925,0.1942,0.2004,0.1975,0.2003,0.205,0.1988,0.1935,0.183,0.1764,0.1704,0.168,0.1678,0.1534,0.1522,0.1511,0.1503,0.1495,0,0.1711,0.1745,0.1811,0.181,0.1822,0.1851,0.1844,0.1875,0.1869,0.1875,0.1869,0.1828,0.1774,0.1643,0.1573,0.1479,0.1609,0.1279,0.1349,0.1619,0.1591,0.1606,0.1618,0.1335,0.1327,0.1321,0.1315,0,0.1696,0.1735,0.1763,0.1768,0.1776,0.1786,0.1784,0.1772,0.1785,0.1759,0.1707,0.1658,0.1501,0.1346,0.1107,0.1073,0.1296,0.1123,0.1475,0.1477,0.1405,0.1384,0.141,0.1256,0.1262,0.1266,0.127,0.1272,0.1675,0.1703,0.1728,0.1719,0.1721,0.1712,0.1671,0.1647,0.1602,0.1492,0.1522,0.1343,0.1273,0.0871,0.0778,0.068,0.0801,0.0783,0.0819,0.0859,0.0766,0.067,0.0368,0.0369,0.037,0.037,0.0371,0,0.1654,0.1679,0.1654,0.1648,0.1605,0.1646,0.1607,0.1519,0.1404,0.1289,0.1174,0.0916,0.0727,0.0647,0.0445,0.033,0.0515,0.0264,0.0587,0.0641,0.069,0.0605,0.0157,0.0156,0.0156,0.0155,0,0,0.1644,0.1632,0.1616,0.1533,0.152,0.1456,0.1423,0.1271,0.1144,0.0911,0.0745,0.0672,0.063,0.0404,0.0338,0.0235,0.0458,0.0199,0.0376,0.0816,0.0866,0.0978,0.0898,0,0,0,0,0]},{"header":{"parameterUnit":"m.s-1","parameterCategory":2,"la1":30.2991,"la2":30.254,"lo1":-89.0895,"lo2":-89.0444,"dy":0.0017,"dx":0.0017,"nx":28,"ny":28,"refTime":"2024-02-27T03:00:00:Z","depth":"2","parameterNumber":3,"parameterNumberName":"V-component_of_CURRENTS"},"data":[0,0,0,0,0,0,0,0,0,0,0,0,0,0,0,0,0,0,0,0,0,0,0,0,0,0,0,0,0,0,0,0,0,0,0,0,0,0,0,0,0,0,0,0,0,0,0,0,0,0,0,0,0,0,0,0,0,0,-0.0032,-0.0033,0,0.0046,0.0049,0.0052,0.0159,0.0159,0.0159,0.0159,0.0331,0.0336,0.0341,0,0,0,0,0,0,0,0,0,0,0,0,0,-0.0006,-0.0005,-0.0032,-0.0033,-0.0035,0.0046,0.0049,0.0052,0.0159,0.0159,0.0159,0.0158,0.033,0.0335,0.0341,0,0,0,0,0,0,0,0,0,0,0,0,0,0.004,-0.0005,-0.0032,0.0012,0.0015,0.0045,0.0049,0.0053,0.0159,0.0159,0.0159,0.0158,0.0328,0.0335,0.0342,0.0393,0,0,0.0364,0.0367,0,0,0,0,0,0,0,0,0.0037,0.0042,0.0007,0.0009,0.0012,0.0073,0.012,0.0164,0.0159,0.0128,0.0159,0.0158,0.0239,0.0254,0.03,0.0401,0.0409,0.0364,0.0369,0.0372,0.0374,0,0,0,0,0,0,0,0.0034,0.0039,0.0021,0.0005,0.0008,0.0055,0.0063,0.0131,0.0204,0.0131,0.0133,0.0107,0.0245,0.0293,0.0304,0.0411,0.0364,0.0371,0.0375,0.0378,0.0602,0.0604,0,0,0,0,0,0,-0.0025,0.0035,0.0018,0.0021,-0.0001,0.0053,0.0063,0.0072,0.0201,0.0213,0.0107,0.0111,0.028,0.0296,0.0311,0.0411,0.0372,0.0379,0.0383,0.0601,0.0603,0.0604,0,0,0,0,0,0,-0.0024,-0.0025,0.0015,0.001,0.0016,0.005,0.0061,0.0073,0.014,0.0177,0.0196,0.0159,0.0281,0.03,0.0387,0.0416,0.0382,0.0388,0.0599,0.0601,0.0604,0.059,0,0,0,0,0,0,-0.0022,-0.0024,-0.0018,0.0007,0.0013,0.0066,0.0059,0.0074,0.0111,0.012,0.0228,0.0243,0.0282,0.0376,0.0394,0.0426,0.0394,0.0597,0.06,0.0603,0.0588,0.0592,0.0595,0,0,0,0,0,-0.0021,-0.003,-0.0016,-0.002,0.0016,0.0066,0.008,0.0115,0.0114,0.0173,0.0221,0.0241,0.0408,0.0384,0.0405,0.0439,0.0595,0.0599,0.0602,0.0587,0.0591,0.0595,0,0,0,0,0,0,-0.0022,-0.0022,-0.0006,-0.0014,0.0037,0.0077,0.0091,0.0127,0.0216,0.021,0.0269,0.029,0.0372,0.0413,0.0384,0.0513,0.0503,0.0511,0.0484,0.0489,0.0492,0.0512,0.04,0,0,0,0,0,-0.0024,-0.0015,0.0005,0.0011,0.0018,0.0067,0.0089,0.0124,0.0176,0.0217,0.028,0.0342,0.0403,0.0449,0.0511,0.0592,0.0607,0.0626,0.0629,0.0631,0.0663,0.0688,0.0695,0.0616,0.0616,0.0616,0,0,-0.0025,-0.0029,-0.0021,0.0013,0.004,0.0073,0.0089,0.0122,0.0177,0.0218,0.0313,0.0357,0.0425,0.0506,0.0548,0.0547,0.0659,0.0636,0.0637,0.0669,0.0692,0.07,0.0706,0.0619,0.0618,0.0618,0,0,-0.0035,-0.0024,-0.0019,0.0022,0.0047,0.008,0.0093,0.0152,0.0212,0.0296,0.0326,0.0392,0.0498,0.0554,0.0591,0.0655,0.0667,0.0671,0.0717,0.0739,0.0745,0.0751,0.0757,0.0763,0.068,0.068,0.068,0,-0.0032,-0.0024,-0.0001,0.0016,0.0043,0.0081,0.012,0.0181,0.0274,0.0333,0.0322,0.0476,0.0521,0.0627,0.0646,0.0663,0.0672,0.0689,0.074,0.0746,0.0753,0.0758,0.0765,0.068,0.068,0.068,0.068,0,-0.0037,-0.0014,-0.0014,0.0029,0.008,0.0114,0.0175,0.0249,0.0294,0.0356,0.0474,0.0532,0.0632,0.0644,0.0668,0.0751,0.074,0.0727,0.0722,0.0759,0.0762,0.077,0.068,0.068,0.068,0.068,0,0,-0.0066,-0.002,-0.0018,0.0035,0.0094,0.0147,0.0221,0.0329,0.0398,0.0476,0.0581,0.0667,0.0701,0.0749,0.0782,0.0808,0.0837,0.0795,0.0796,0.0787,0.0878,0.0799,0.0799,0.0825,0.0827,0.0829,0.0853,0,-0.0062,-0.0021,0.0004,0.0089,0.0132,0.0208,0.0286,0.0391,0.0473,0.0581,0.065,0.0744,0.074,0.0786,0.0815,0.085,0.0863,0.0832,0.0859,0.0861,0.0773,0.0808,0.0751,0.0763,0.086,0.0862,0.0863,0,-0.0079,-0.0033,0.0035,0.016,0.0184,0.0244,0.0401,0.0479,0.0615,0.068,0.0777,0.0827,0.0923,0.0879,0.0952,0.0934,0.0916,0.0912,0.0912,0.0858,0.0797,0.0749,0.0773,0.0876,0.0875,0.0874,0.0873,0,-0.0092,-0.0006,0.0062,0.0102,0.0229,0.0304,0.038,0.0518,0.0605,0.0748,0.0809,0.0919,0.0976,0.0991,0.0993,0.0981,0.1032,0.1005,0.0912,0.0905,0.0878,0.0865,0.1028,0.1028,0.1028,0.1028,0.1028,0,-0.0102,-0.0038,0.007,0.0113,0.0237,0.0322,0.0451,0.0546,0.0669,0.077,0.0858,0.094,0.1004,0.1041,0.1025,0.0999,0.1054,0.094,0.0916,0.0868,0.0854,0.0976,0.0969,0.1028,0.1028,0.1028,0.1028,0,-0.0121,-0.0071,0.0036,0.0176,0.023,0.0327,0.048,0.0568,0.0673,0.0802,0.0846,0.0974,0.1022,0.1045,0.1071,0.103,0.1011,0.0971,0.0902,0.0869,0.0863,0.0856,0.0899,0.0896,0.0894,0.0893,0.0891,0,-0.0135,-0.009,0.0073,0.0145,0.0215,0.0352,0.0441,0.0568,0.0651,0.0815,0.0872,0.096,0.1023,0.1031,0.0995,0.0954,0.0953,0.0833,0.0796,0.0883,0.0856,0.0852,0.0848,0.0751,0.0749,0.0747,0.0745,0,-0.0128,-0.007,0.0032,0.016,0.027,0.0393,0.0519,0.0573,0.0714,0.0802,0.0915,0.0972,0.0997,0.0956,0.0884,0.0838,0.0843,0.0786,0.0925,0.0776,0.0741,0.0714,0.0716,0.0727,0.0729,0.073,0.0731,0.0732,-0.0106,-0.0029,0.0087,0.0217,0.0326,0.0432,0.0506,0.061,0.0718,0.0835,0.089,0.0935,0.0919,0.0808,0.0765,0.0703,0.0726,0.0658,0.0667,0.0676,0.0638,0.06,0.0553,0.0554,0.0554,0.0555,0.0556,0,-0.0043,0.004,0.0133,0.0287,0.0376,0.0441,0.0563,0.0615,0.071,0.0784,0.0856,0.0776,0.0736,0.0708,0.0604,0.0556,0.0584,0.0509,0.0551,0.0566,0.058,0.054,0.0428,0.0428,0.0428,0.0428,0,0,-0.0005,0.0107,0.0151,0.0306,0.0397,0.0505,0.0565,0.0626,0.0674,0.071,0.071,0.0757,0.0716,0.0605,0.0548,0.0485,0.0539,0.0465,0.056,0.0627,0.0643,0.0643,0.0595,0,0,0,0,0]}],[{"header":{"parameterUnit":"m.s-1","parameterCategory":2,"la1":30.2991,"la2":30.254,"lo1":-89.0895,"lo2":-89.0444,"dy":0.0017,"dx":0.0017,"nx":28,"ny":28,"refTime":"2024-02-27T03:00:00:Z","depth":"4","parameterNumber":2,"parameterNumberName":"U-component_of_CURRENTS"},"data":[0,0,0,0,0,0,0,0,0,0,0,0,0,0,0,0,0,0,0,0,0,0,0,0,0,0,0,0,0,0,0,0,0,0,0,0,0,0,0,0,0,0,0,0,0,0,0,0,0,0,0,0,0,0,0,0,0,0,-0.0515,-0.0515,0,-0.0545,-0.0545,-0.0546,-0.0616,-0.0617,-0.0618,-0.0619,-0.0624,-0.0623,-0.0622,0,0,0,0,0,0,0,0,0,0,0,0,0,-0.0464,-0.0465,-0.0515,-0.0515,-0.0515,-0.0545,-0.0545,-0.0546,-0.0615,-0.0617,-0.0618,-0.062,-0.0624,-0.0623,-0.0622,0,0,0,0,0,0,0,0,0,0,0,0,0,-0.0492,-0.0466,-0.0515,-0.0551,-0.0554,-0.0544,-0.0545,-0.0546,-0.0615,-0.0617,-0.0619,-0.062,-0.0624,-0.0623,-0.0621,-0.0577,0,0,-0.0617,-0.0616,0,0,0,0,0,0,0,0,-0.0491,-0.0494,-0.0546,-0.0548,-0.0552,-0.0576,-0.0529,-0.0554,-0.0615,-0.0595,-0.0619,-0.0621,-0.0602,-0.0602,-0.0609,-0.0578,-0.0578,-0.0617,-0.0616,-0.0615,-0.0615,0,0,0,0,0,0,0,-0.0489,-0.0493,-0.053,-0.0545,-0.0549,-0.0547,-0.0554,-0.0534,-0.059,-0.0597,-0.0601,-0.0599,-0.0604,-0.061,-0.0609,-0.0578,-0.0617,-0.0616,-0.0615,-0.0614,-0.049,-0.0487,0,0,0,0,0,0,-0.048,-0.0492,-0.0529,-0.053,-0.0522,-0.0546,-0.0554,-0.0569,-0.0591,-0.0596,-0.0598,-0.0602,-0.0612,-0.0611,-0.061,-0.0586,-0.0615,-0.0614,-0.0613,-0.0492,-0.0489,-0.0487,0,0,0,0,0,0,-0.0479,-0.0483,-0.0528,-0.0508,-0.0513,-0.0546,-0.0561,-0.0568,-0.0612,-0.0591,-0.0597,-0.0638,-0.0613,-0.0612,-0.0629,-0.0586,-0.0613,-0.0612,-0.0495,-0.0491,-0.0488,-0.0522,0,0,0,0,0,0,-0.0478,-0.0483,-0.0501,-0.0508,-0.0514,-0.0545,-0.0559,-0.0568,-0.0604,-0.0611,-0.0626,-0.0626,-0.0614,-0.0632,-0.0628,-0.0585,-0.0611,-0.0498,-0.0493,-0.0489,-0.0524,-0.052,-0.0516,0,0,0,0,0,-0.0476,-0.0498,-0.0502,-0.0506,-0.0534,-0.0545,-0.0549,-0.0578,-0.0604,-0.0625,-0.0642,-0.0628,-0.0597,-0.0631,-0.0626,-0.0581,-0.05,-0.0495,-0.0489,-0.0526,-0.0521,-0.0517,0,0,0,0,0,0,-0.0491,-0.0506,-0.0512,-0.0539,-0.0547,-0.0556,-0.0572,-0.0595,-0.0625,-0.0645,-0.0635,-0.0636,-0.063,-0.0595,-0.0633,-0.0522,-0.0529,-0.0523,-0.0557,-0.0553,-0.0549,-0.0526,-0.061,0,0,0,0,0,-0.0496,-0.052,-0.0523,-0.0547,-0.0548,-0.0565,-0.0578,-0.0604,-0.0622,-0.0641,-0.0631,-0.0611,-0.0592,-0.0575,-0.0557,-0.0513,-0.0504,-0.0463,-0.0459,-0.0457,-0.0429,-0.0388,-0.038,-0.0469,-0.0469,-0.0469,0,0,-0.0508,-0.0518,-0.0534,-0.0551,-0.0558,-0.0558,-0.058,-0.0612,-0.0606,-0.063,-0.0619,-0.0623,-0.0586,-0.0547,-0.0531,-0.0519,-0.0437,-0.045,-0.0449,-0.0421,-0.0382,-0.0374,-0.0366,-0.0465,-0.0466,-0.0466,0,0,-0.0529,-0.0549,-0.0568,-0.0577,-0.0594,-0.0584,-0.06,-0.0611,-0.0612,-0.06,-0.0615,-0.0616,-0.0547,-0.0532,-0.0509,-0.0467,-0.0441,-0.0421,-0.0364,-0.0327,-0.032,-0.0314,-0.0353,-0.035,-0.0393,-0.0393,-0.0393,0,-0.0538,-0.0565,-0.0574,-0.0589,-0.0583,-0.0596,-0.0598,-0.0592,-0.0605,-0.0582,-0.0593,-0.0533,-0.0535,-0.0491,-0.0463,-0.0464,-0.0444,-0.0401,-0.0327,-0.0319,-0.0312,-0.0354,-0.035,-0.0394,-0.0393,-0.0393,-0.0393,0,-0.0566,-0.059,-0.0599,-0.0604,-0.0597,-0.0614,-0.0585,-0.057,-0.0551,-0.0533,-0.0496,-0.0504,-0.0449,-0.0443,-0.0435,-0.0366,-0.0376,-0.0359,-0.0353,-0.0307,-0.0353,-0.0348,-0.0395,-0.0395,-0.0394,-0.0394,0,0,-0.0566,-0.0608,-0.0614,-0.0612,-0.0612,-0.0603,-0.0559,-0.0509,-0.0477,-0.0459,-0.0409,-0.0382,-0.0377,-0.0348,-0.0351,-0.0313,-0.0293,-0.0284,-0.0282,-0.0351,-0.0239,-0.0238,-0.0234,-0.0241,-0.0239,-0.0237,-0.0316,0,-0.0576,-0.0611,-0.0613,-0.0609,-0.0608,-0.0579,-0.0523,-0.0484,-0.0436,-0.0388,-0.0376,-0.0339,-0.0337,-0.0318,-0.0279,-0.0317,-0.0267,-0.0275,-0.0246,-0.0247,-0.0273,-0.0222,-0.023,-0.0313,-0.0312,-0.0311,-0.031,0,-0.0584,-0.0607,-0.0623,-0.0593,-0.0583,-0.0558,-0.0461,-0.042,-0.0349,-0.0311,-0.0266,-0.026,-0.0246,-0.0226,-0.0227,-0.022,-0.0189,-0.0208,-0.0211,-0.018,-0.0232,-0.0347,-0.0302,-0.0303,-0.0303,-0.0304,-0.0304,0,-0.0565,-0.0591,-0.0599,-0.0605,-0.0579,-0.0531,-0.0472,-0.0391,-0.0342,-0.026,-0.0243,-0.0209,-0.0216,-0.0175,-0.0223,-0.0188,-0.0238,-0.0211,-0.0184,-0.0189,-0.0161,-0.0165,-0.0122,-0.0122,-0.0121,-0.0121,-0.0121,0,-0.0553,-0.0563,-0.0594,-0.0601,-0.0562,-0.0517,-0.0435,-0.0372,-0.0295,-0.0258,-0.0202,-0.0201,-0.0179,-0.0218,-0.0217,-0.0233,-0.0232,-0.0161,-0.018,-0.0181,-0.0187,-0.0163,-0.0166,-0.0124,-0.0124,-0.0123,-0.0123,0,-0.0536,-0.0569,-0.0594,-0.0585,-0.0561,-0.0528,-0.0421,-0.0368,-0.0293,-0.0251,-0.0224,-0.0202,-0.0208,-0.0238,-0.0234,-0.0247,-0.0262,-0.0239,-0.0315,-0.0342,-0.0238,-0.0242,-0.0198,-0.0198,-0.0198,-0.0198,-0.0198,0,-0.0528,-0.0549,-0.0598,-0.0594,-0.0586,-0.052,-0.0463,-0.0366,-0.033,-0.0273,-0.0282,-0.0245,-0.0225,-0.0263,-0.0276,-0.0282,-0.0236,-0.0296,-0.0158,-0.0208,-0.0232,-0.0236,-0.024,-0.0198,-0.0198,-0.0198,-0.0198,0,-0.0512,-0.0561,-0.0596,-0.0606,-0.0574,-0.054,-0.0463,-0.0435,-0.0345,-0.0312,-0.0257,-0.022,-0.0223,-0.0218,-0.0225,-0.023,-0.0306,-0.0294,-0.0291,-0.016,-0.0208,-0.0232,-0.0236,-0.0198,-0.0198,-0.0198,-0.0198,0,-0.0519,-0.0546,-0.0598,-0.0589,-0.0571,-0.0537,-0.0508,-0.0433,-0.0372,-0.0294,-0.0301,-0.0247,-0.0218,-0.0194,-0.0243,-0.0219,-0.0151,-0.0161,-0.0163,-0.0164,-0.0112,-0.0165,-0.0137,0,0,0,0,0,-0.0509,-0.0509,-0.0532,-0.0543,-0.054,-0.0519,-0.049,-0.047,-0.0418,-0.0349,-0.0288,-0.0253,-0.0194,-0.0209,-0.0157,-0.025,-0.0203,-0.0203,-0.0228,-0.0197,-0.0197,-0.0138,0,0,0,0,0,0,-0.0484,-0.0521,-0.0532,-0.0498,-0.0482,-0.0472,-0.0458,-0.0454,-0.0402,-0.034,-0.0292,-0.0249,-0.0193,-0.0169,-0.0141,-0.0146,-0.0166,-0.017,-0.017,-0.0197,-0.0197,-0.0197,-0.0137,0,0,0,0,0]},{"header":{"parameterUnit":"m.s-1","parameterCategory":2,"la1":30.2991,"la2":30.254,"lo1":-89.0895,"lo2":-89.0444,"dy":0.0017,"dx":0.0017,"nx":28,"ny":28,"refTime":"2024-02-27T03:00:00:Z","depth":"4","parameterNumber":3,"parameterNumberName":"V-component_of_CURRENTS"},"data":[0,0,0,0,0,0,0,0,0,0,0,0,0,0,0,0,0,0,0,0,0,0,0,0,0,0,0,0,0,0,0,0,0,0,0,0,0,0,0,0,0,0,0,0,0,0,0,0,0,0,0,0,0,0,0,0,0,0,0.035,0.035,0,0.0384,0.0384,0.0385,0.0466,0.0467,0.0468,0.047,0.0423,0.0421,0.0418,0,0,0,0,0,0,0,0,0,0,0,0,0,0.0286,0.0287,0.035,0.035,0.035,0.0384,0.0384,0.0385,0.0465,0.0467,0.0469,0.047,0.0424,0.0421,0.0418,0,0,0,0,0,0,0,0,0,0,0,0,0,0.0319,0.0288,0.035,0.0392,0.0396,0.0383,0.0384,0.0385,0.0465,0.0467,0.0469,0.0471,0.0425,0.0422,0.0418,0.0352,0,0,0.0406,0.0405,0,0,0,0,0,0,0,0,0.0317,0.0322,0.0386,0.0389,0.0393,0.042,0.0345,0.0369,0.0464,0.0442,0.047,0.0472,0.0411,0.0409,0.0416,0.035,0.0348,0.0406,0.0404,0.0402,0.0401,0,0,0,0,0,0,0,0.0315,0.032,0.0367,0.0386,0.039,0.0385,0.0393,0.035,0.0415,0.0444,0.0449,0.0447,0.0414,0.042,0.0415,0.0348,0.0406,0.0403,0.04,0.0399,0.026,0.0258,0,0,0,0,0,0,0.0306,0.0318,0.0365,0.0367,0.0356,0.0385,0.0394,0.0412,0.0418,0.042,0.0446,0.0451,0.0425,0.042,0.0414,0.0389,0.0402,0.0398,0.0396,0.0261,0.0259,0.0258,0,0,0,0,0,0,0.0305,0.031,0.0364,0.034,0.0346,0.0384,0.0403,0.0411,0.0463,0.0419,0.0422,0.0494,0.0426,0.0419,0.0422,0.0386,0.0397,0.0393,0.0263,0.0261,0.0259,0.0305,0,0,0,0,0,0,0.0303,0.031,0.0324,0.034,0.0347,0.0378,0.0401,0.041,0.0454,0.0463,0.0459,0.0456,0.0428,0.0428,0.0418,0.0381,0.039,0.0265,0.0262,0.0259,0.0306,0.0305,0.0305,0,0,0,0,0,0.0301,0.0312,0.0325,0.033,0.0364,0.0378,0.0383,0.0417,0.0455,0.0474,0.0487,0.0458,0.0402,0.0426,0.0414,0.0374,0.0266,0.0263,0.0259,0.0306,0.0305,0.0305,0,0,0,0,0,0,0.0305,0.0322,0.0336,0.0357,0.0374,0.0392,0.0404,0.0439,0.0466,0.0497,0.0465,0.046,0.0436,0.0402,0.0429,0.0322,0.0317,0.0312,0.0356,0.0355,0.0355,0.0368,0.0387,0,0,0,0,0,0.0305,0.0317,0.0334,0.0354,0.0361,0.0392,0.0406,0.045,0.0469,0.0489,0.0485,0.0459,0.0402,0.0388,0.0345,0.0305,0.0307,0.026,0.026,0.026,0.0261,0.0244,0.0243,0.0247,0.0247,0.0247,0,0,0.0311,0.0321,0.033,0.0354,0.0369,0.0396,0.0409,0.0459,0.0486,0.0471,0.0508,0.0469,0.0393,0.0348,0.033,0.0326,0.0267,0.0256,0.0257,0.0257,0.0241,0.0241,0.0241,0.0245,0.0246,0.0246,0,0,0.0319,0.034,0.0348,0.0373,0.0411,0.0426,0.0451,0.0497,0.0518,0.0535,0.0517,0.0479,0.0418,0.0357,0.0308,0.0277,0.0269,0.0245,0.0252,0.0236,0.0237,0.0237,0.0282,0.0286,0.0241,0.0241,0.0241,0,0.0323,0.0351,0.0354,0.0382,0.0405,0.0446,0.0482,0.0496,0.0548,0.0535,0.0554,0.0454,0.0407,0.0313,0.0299,0.0274,0.0294,0.0267,0.024,0.024,0.024,0.0285,0.0289,0.0243,0.0242,0.0242,0.0242,0,0.0343,0.0379,0.0389,0.043,0.0453,0.05,0.052,0.0546,0.0568,0.0566,0.0514,0.0461,0.0391,0.035,0.0313,0.0256,0.0285,0.0252,0.0254,0.0243,0.0291,0.0294,0.0245,0.0245,0.0244,0.0244,0,0,0.0317,0.0385,0.0395,0.043,0.0498,0.052,0.0541,0.0539,0.0537,0.0547,0.0509,0.0413,0.0395,0.0339,0.0287,0.0266,0.0288,0.0264,0.0262,0.0333,0.0312,0.0249,0.0247,0.0263,0.0262,0.0262,0.0364,0,0.0332,0.0393,0.042,0.0489,0.0524,0.0558,0.0558,0.0573,0.0555,0.0527,0.0454,0.0408,0.0383,0.0354,0.0325,0.0271,0.0291,0.0267,0.029,0.0292,0.0255,0.0245,0.0261,0.0366,0.0367,0.0367,0.0368,0,0.0338,0.0382,0.0461,0.0514,0.0528,0.0587,0.0591,0.0597,0.0546,0.0522,0.047,0.0422,0.036,0.0357,0.0316,0.0308,0.0327,0.0314,0.0317,0.0239,0.0231,0.0364,0.0373,0.0373,0.0373,0.0372,0.0372,0,0.0312,0.0399,0.0466,0.0504,0.0576,0.0613,0.0636,0.0614,0.0587,0.0543,0.0505,0.044,0.0406,0.0393,0.0353,0.0348,0.0334,0.0318,0.0305,0.0304,0.0316,0.0314,0.0342,0.0342,0.0342,0.0341,0.0341,0,0.031,0.0359,0.0488,0.0531,0.0604,0.0645,0.0671,0.0665,0.0626,0.056,0.0524,0.0435,0.0416,0.0379,0.0371,0.0335,0.0358,0.0311,0.0308,0.0338,0.0337,0.0322,0.0319,0.0345,0.0344,0.0344,0.0343,0,0.0282,0.036,0.0446,0.0559,0.061,0.0671,0.0723,0.0701,0.0679,0.0592,0.0579,0.0463,0.0394,0.0392,0.0366,0.0352,0.033,0.0338,0.0415,0.0415,0.0327,0.0324,0.033,0.0328,0.0326,0.0325,0.0324,0,0.0268,0.0322,0.048,0.0548,0.063,0.072,0.0749,0.0749,0.0693,0.056,0.0484,0.042,0.034,0.0291,0.027,0.0308,0.0304,0.0353,0.0297,0.032,0.0317,0.0317,0.0316,0.0322,0.0321,0.0321,0.032,0,0.0237,0.0317,0.0389,0.0547,0.0644,0.0694,0.0726,0.0659,0.0586,0.0588,0.041,0.0346,0.0267,0.0224,0.029,0.0285,0.0328,0.0337,0.034,0.0288,0.031,0.0309,0.031,0.0315,0.0316,0.0316,0.0317,0,0.0219,0.0261,0.0381,0.0514,0.0626,0.0625,0.0634,0.0576,0.0532,0.039,0.0321,0.0238,0.023,0.0208,0.0209,0.0247,0.0239,0.0269,0.0275,0.0281,0.0205,0.0222,0.0198,0,0,0,0,0,0.0192,0.0222,0.0326,0.044,0.0548,0.0617,0.0591,0.0563,0.0476,0.0371,0.0355,0.0273,0.0221,0.0162,0.0191,0.015,0.0231,0.018,0.0266,0.0286,0.0292,0.02,0,0,0,0,0,0,0.0173,0.0247,0.0291,0.0373,0.0439,0.0515,0.0492,0.0429,0.0358,0.0295,0.0274,0.0305,0.0264,0.0246,0.0208,0.0205,0.0262,0.0182,0.0182,0.0283,0.0288,0.0293,0.02,0,0,0,0,0]}]]